Change the Weather History Date:

Saturday, October 15, 2011

  Actual Average Record
Temperature  
Mean Temperature 50 °F -  
Max Temperature 57 °F 58 °F 71 °F (2007)
Min Temperature 45 °F 35 °F 24 °F (2006)
Degree Days  
Heating Degree Days 15    
Moisture  
Dew Point 39 °F    
Average Humidity 69    
Maximum Humidity 89    
Minimum Humidity 49    
Precipitation  
Precipitation 0.11 in - - ()
Sea Level Pressure  
Sea Level Pressure 29.64 in    
Wind  
Wind Speed 14 mph (West)    
Max Wind Speed 29 mph    
Max Gust Speed 41 mph    
Visibility 10 miles    
Events Rain    
Averages and records for this station are not official NWS values.
T = Trace of Precipitation, MM = Missing Value Source: NWS Daily Summary

Daily Weather History Graph

Daily Weather History Graph

Search for Another Location

Airport or City:

Trip Planner

Search our weather history database for the weather conditions in past years. The results will help you decide how hot, cold, wet, or windy it might be!

Date:

Astronomy

Oct. 15, 2011 Rise Set
Actual Time 7:47 AM EDT 6:53 PM EDT
Civil Twilight 7:19 AM EDT 7:21 PM EDT
Nautical Twilight 6:46 AM EDT 7:54 PM EDT
Astronomical Twilight 6:14 AM EDT 8:26 PM EDT
Moon 8:44 PM EDT (10/15) 11:15 AM EDT (10/15)
Length of Visible Light 12h 02m
Length of Day
11h 06m
Waning Gibbous, 89% of the Moon is Illuminated
Oct 15
Waning Gibbous
Oct 19
Last Quarter
Oct 26
New
Nov 2
First Quarter
Nov 10
Full

Hourly Weather History & Observations

Time (EDT) Temp. Windchill Dew Point Humidity Pressure Visibility Wind Dir Wind Speed Gust Speed Precip Events Conditions
1:53 AM 46.0 °F 41.4 °F 39.9 °F 79% 29.54 in 10.0 mi WSW 9.2 mph - N/A   Overcast
2:53 AM 45.0 °F 40.6 °F 39.9 °F 82% 29.54 in 10.0 mi SW 8.1 mph - N/A   Mostly Cloudy
3:53 AM 45.0 °F 39.7 °F 41.0 °F 86% 29.55 in 7.0 mi West 10.4 mph - 0.02 in Rain Light Rain
4:53 AM 46.0 °F 39.9 °F 42.1 °F 86% 29.54 in 10.0 mi West 13.8 mph - 0.02 in Rain Light Rain
5:53 AM 46.0 °F 39.6 °F 43.0 °F 89% 29.55 in 10.0 mi West 15.0 mph - 0.02 in   Overcast
6:35 AM 46.4 °F 40.1 °F 42.8 °F 87% 29.54 in 10.0 mi West 15.0 mph 23.0 mph 0.03 in Rain Light Rain
6:53 AM 46.0 °F 39.9 °F 42.1 °F 86% 29.55 in 9.0 mi West 13.8 mph - 0.04 in Rain Light Rain
7:17 AM 46.4 °F 40.1 °F 42.8 °F 87% 29.55 in 10.0 mi West 15.0 mph - 0.01 in Rain Light Rain
7:53 AM 46.0 °F 41.4 °F 43.0 °F 89% 29.56 in 10.0 mi West 9.2 mph - 0.01 in   Overcast
10:53 AM 51.1 °F - 37.9 °F 61% 29.59 in 10.0 mi West 26.5 mph 41.4 mph N/A   Overcast
11:53 AM 52.0 °F - 36.0 °F 54% 29.61 in 10.0 mi West 26.5 mph 40.3 mph N/A   Overcast
12:53 PM 53.1 °F - 37.0 °F 55% 29.63 in 10.0 mi WNW 28.8 mph 36.8 mph N/A   Overcast
2:53 PM 54.0 °F - 36.0 °F 51% 29.66 in 10.0 mi West 20.7 mph 34.5 mph N/A   Scattered Clouds
3:53 PM 55.0 °F - 36.0 °F 49% 29.68 in 10.0 mi West 25.3 mph 38.0 mph N/A   Mostly Cloudy
4:53 PM 54.0 °F - 35.1 °F 49% 29.69 in 10.0 mi West 25.3 mph 39.1 mph N/A   Scattered Clouds
5:53 PM 54.0 °F - 36.0 °F 51% 29.72 in 10.0 mi West 17.3 mph 31.1 mph N/A   Scattered Clouds
6:53 PM 53.1 °F - 36.0 °F 52% 29.75 in 10.0 mi West 19.6 mph 28.8 mph N/A   Mostly Cloudy
8:53 PM 51.1 °F - 36.0 °F 56% 29.78 in 10.0 mi West 11.5 mph - N/A   Scattered Clouds
9:53 PM 46.9 °F - 37.0 °F 68% 29.80 in 10.0 mi WSW 6.9 mph - N/A   Clear
10:53 PM 46.9 °F - 37.0 °F 68% 29.80 in 10.0 mi WSW 6.9 mph - N/A   Clear
11:53 PM 46.9 °F - 37.9 °F 71% 29.81 in 10.0 mi WSW 9.2 mph - N/A   Clear